Weather History for KIFA - March, 2014

Change the Weather History Date:

Sunday, March 2, 2014

  Actual Average Record
Temperature  
Mean Temperature -6 °F -  
Max Temperature -1 °F 40 °F 67 °F (1983)
Min Temperature -13 °F 20 °F -13 °F (2014)
Degree Days  
Heating Degree Days 72    
Moisture  
Dew Point -16 °F    
Average Humidity 66    
Maximum Humidity 75    
Minimum Humidity 54    
Precipitation  
Precipitation 0.00 in - - ()
Sea Level Pressure  
Sea Level Pressure 30.50 in    
Wind  
Wind Speed 16 mph (NW)    
Max Wind Speed 22 mph    
Max Gust Speed 25 mph    
Visibility 10 miles    
Events      
Averages and records for this station are not official NWS values.
T = Trace of Precipitation, MM = Missing Value Source: NWS Daily Summary

Daily Weather History Graph

Daily Weather History Graph

Search for Another Location

Airport or City:

Trip Planner

Search our weather history database for the weather conditions in past years. The results will help you decide how hot, cold, wet, or windy it might be!

Date:

Astronomy

Mar. 02, 2014 Rise Set
Actual Time 6:46 AM CST 6:04 PM CST
Civil Twilight 6:18 AM CST 6:32 PM CST
Nautical Twilight 5:46 AM CST 7:04 PM CST
Astronomical Twilight 5:13 AM CST 7:37 PM CST
Moon 7:15 AM CST (3/2) 8:04 PM CST (3/2)
Length of Visible Light 12h 13m
Length of Day
11h 17m
Waxing Crescent, 3% of the Moon is Illuminated
Mar 2
Waxing Crescent
Mar 8
First Quarter
Mar 16
Full
Mar 23
Last Quarter
Mar 30
New

Hourly Weather History & Observations

Time (CST) Temp. Windchill Dew Point Humidity Pressure Visibility Wind Dir Wind Speed Gust Speed Precip Events Conditions
12:15 AM -3.1 °F -25.3 °F -10.3 °F 71% 30.47 in 4.0 mi NNW 18.4 mph - N/A   Haze
12:35 AM -3.5 °F -25.1 °F -10.7 °F 71% 30.48 in 10.0 mi NNW 17.3 mph 21.9 mph N/A   Overcast
12:55 AM -3.6 °F -26.5 °F -12.3 °F 67% 30.48 in 10.0 mi NNW 19.6 mph - N/A   Overcast
1:15 AM -4.2 °F -27.3 °F -12.8 °F 66% 30.47 in 7.0 mi NNW 19.6 mph - N/A   Overcast
1:35 AM -4.9 °F -29.3 °F -13.5 °F 66% 30.47 in 7.0 mi NNW 21.9 mph 25.3 mph N/A   Overcast
1:55 AM -5.1 °F -28.4 °F -13.7 °F 66% 30.47 in 7.0 mi NNW 19.6 mph - N/A   Overcast
2:15 AM -5.3 °F -28.7 °F -13.4 °F 68% 30.47 in 7.0 mi NNW 19.6 mph - N/A   Overcast
2:35 AM -5.1 °F -27.8 °F -13.5 °F 67% 30.47 in 10.0 mi NNW 18.4 mph - N/A   Overcast
2:55 AM -5.4 °F -27.0 °F -13.0 °F 70% 30.48 in 10.0 mi NNW 16.1 mph - N/A   Overcast
3:15 AM -5.4 °F -28.3 °F -13.7 °F 67% 30.48 in 10.0 mi NNW 18.4 mph - N/A   Overcast
3:35 AM -5.8 °F -29.9 °F -13.7 °F 69% 30.48 in 10.0 mi NNW 20.7 mph 24.2 mph N/A   Overcast
3:55 AM -6.0 °F -30.2 °F -13.4 °F 70% 30.47 in 10.0 mi NNW 20.7 mph - N/A   Overcast
4:15 AM -6.2 °F -30.4 °F -13.9 °F 69% 30.47 in 10.0 mi NNW 20.7 mph - N/A   Overcast
4:35 AM -6.3 °F -29.5 °F -14.1 °F 69% 30.48 in 10.0 mi NNW 18.4 mph - N/A   Overcast
4:55 AM -7.4 °F -30.3 °F -15.5 °F 68% 30.48 in 10.0 mi NNW 17.3 mph - N/A   Overcast
5:15 AM -8.9 °F -31.4 °F -17.3 °F 66% 30.49 in 10.0 mi NNW 16.1 mph 25.3 mph N/A   Scattered Clouds
5:35 AM -9.6 °F -31.6 °F -17.3 °F 69% 30.49 in 10.0 mi NNW 15.0 mph - N/A   Clear
5:55 AM -9.9 °F -31.3 °F -18.4 °F 66% 30.50 in 10.0 mi NNW 13.8 mph - N/A   Clear
6:15 AM -10.3 °F -32.6 °F -18.4 °F 67% 30.50 in 10.0 mi NNW 15.0 mph 19.6 mph N/A   Clear
6:35 AM -10.7 °F -31.4 °F -18.8 °F 67% 30.50 in 10.0 mi NNW 12.7 mph - N/A   Clear
6:55 AM -10.8 °F -34.0 °F -18.8 °F 68% 30.51 in 10.0 mi NNW 16.1 mph - N/A   Clear
7:15 AM -10.7 °F -33.0 °F -18.4 °F 69% 30.51 in 10.0 mi NNW 15.0 mph - N/A   Clear
7:35 AM -10.7 °F -33.8 °F -18.9 °F 67% 30.51 in 10.0 mi NNW 16.1 mph - N/A   Clear
7:55 AM -10.5 °F -32.0 °F -19.3 °F 65% 30.52 in 10.0 mi NNW 13.8 mph - N/A   Clear
8:15 AM -10.3 °F -30.0 °F -19.1 °F 65% 30.54 in 10.0 mi NNW 11.5 mph - N/A   Clear
8:35 AM -9.9 °F -29.6 °F -18.6 °F 66% 30.55 in 10.0 mi NNW 11.5 mph - N/A   Clear
8:55 AM -9.9 °F -31.3 °F -18.8 °F 65% 30.55 in 10.0 mi NNW 13.8 mph - N/A   Clear
9:15 AM -9.6 °F -31.6 °F -19.1 °F 63% 30.54 in 10.0 mi NNW 15.0 mph - N/A   Clear
9:35 AM -8.9 °F -29.1 °F -19.3 °F 60% 30.55 in 10.0 mi NNW 12.7 mph 18.4 mph N/A   Clear
9:55 AM -8.1 °F -29.8 °F -19.3 °F 58% 30.55 in 10.0 mi NNW 15.0 mph - N/A   Clear
10:15 AM -7.4 °F -28.1 °F -19.3 °F 56% 30.55 in 10.0 mi NNW 13.8 mph - N/A   Clear
10:35 AM -6.7 °F -27.9 °F -19.1 °F 55% 30.55 in 10.0 mi NNW 15.0 mph - N/A   Clear
10:55 AM -6.7 °F -27.2 °F -19.3 °F 54% 30.54 in 10.0 mi NNW 13.8 mph - N/A   Clear
11:15 AM -5.4 °F -25.6 °F -17.9 °F 55% 30.55 in 10.0 mi NNW 13.8 mph - N/A   Clear
11:35 AM -5.4 °F -25.6 °F -17.1 °F 57% 30.55 in 10.0 mi NNW 13.8 mph - N/A   Clear
11:55 AM -5.1 °F -25.9 °F -16.4 °F 58% 30.55 in 10.0 mi NNW 15.0 mph - N/A   Clear
12:15 PM -4.7 °F -25.4 °F -16.2 °F 58% 30.54 in 10.0 mi NNW 15.0 mph - N/A   Clear
12:35 PM -4.7 °F -26.1 °F -16.4 °F 57% 30.53 in 10.0 mi NNW 16.1 mph - N/A   Clear
12:55 PM -4.4 °F -24.2 °F -16.4 °F 56% 30.53 in 10.0 mi NNW 13.8 mph - N/A   Clear
1:15 PM -4.0 °F -25.2 °F -15.5 °F 58% 30.52 in 10.0 mi NNW 16.1 mph - N/A   Clear
1:35 PM -3.6 °F -24.7 °F -15.0 °F 58% 30.52 in 10.0 mi NW 16.1 mph - N/A   Clear
1:55 PM -3.3 °F -23.6 °F -14.6 °F 58% 30.50 in 10.0 mi NW 15.0 mph - N/A   Clear
2:15 PM -2.9 °F -23.8 °F -13.9 °F 59% 30.50 in 10.0 mi NNW 16.1 mph - N/A   Clear
2:35 PM -2.6 °F -24.0 °F -13.4 °F 60% 30.50 in 10.0 mi NW 17.3 mph - N/A   Clear
2:55 PM -2.6 °F -21.9 °F -13.7 °F 59% 30.51 in 10.0 mi NNW 13.8 mph - N/A   Clear
3:15 PM -2.2 °F -23.5 °F -13.0 °F 60% 30.52 in 10.0 mi NW 17.3 mph - N/A   Clear
3:35 PM -2.2 °F -22.2 °F -12.8 °F 61% 30.52 in 10.0 mi NNW 15.0 mph - N/A   Clear
3:55 PM -1.8 °F -21.7 °F -12.5 °F 61% 30.52 in 10.0 mi NW 15.0 mph - N/A   Clear
4:15 PM -2.2 °F -22.9 °F -12.3 °F 62% 30.51 in 10.0 mi NNW 16.1 mph - N/A   Clear
4:35 PM -2.7 °F -22.9 °F -13.2 °F 61% 30.50 in 10.0 mi NW 15.0 mph - N/A   Clear
4:55 PM -2.6 °F -20.3 °F -12.1 °F 64% 30.51 in 10.0 mi NW 11.5 mph - N/A   Clear
5:15 PM -3.5 °F -22.3 °F -12.5 °F 65% 30.49 in 10.0 mi NW 12.7 mph - N/A   Clear
5:35 PM -3.5 °F -20.5 °F -12.3 °F 66% 30.48 in 10.0 mi NNW 10.4 mph - N/A   Clear
5:55 PM -4.4 °F -22.6 °F -13.0 °F 66% 30.48 in 10.0 mi NW 11.5 mph - N/A   Clear
6:15 PM -4.9 °F -24.1 °F -13.2 °F 68% 30.48 in 10.0 mi NW 12.7 mph - N/A   Clear
6:35 PM -4.9 °F -23.2 °F -13.4 °F 67% 30.48 in 10.0 mi NW 11.5 mph - N/A   Clear
6:55 PM -5.4 °F -21.9 °F -13.9 °F 67% 30.48 in 10.0 mi NW 9.2 mph - N/A   Clear
7:15 PM -6.7 °F -19.5 °F -14.4 °F 69% 30.48 in 10.0 mi NNW 5.8 mph - N/A   Clear
7:35 PM -7.8 °F -23.6 °F -14.8 °F 71% 30.48 in 10.0 mi NW 8.1 mph - N/A   Clear
7:55 PM -7.8 °F -23.6 °F -14.8 °F 71% 30.49 in 10.0 mi NW 8.1 mph - N/A   Clear
8:15 PM -9.4 °F -25.6 °F -15.9 °F 73% 30.49 in 10.0 mi NW 8.1 mph - N/A   Clear
8:35 PM -10.3 °F -25.4 °F -17.0 °F 72% 30.49 in 10.0 mi NW 6.9 mph - N/A   Clear
8:55 PM -10.3 °F -25.4 °F -17.0 °F 72% 30.49 in 10.0 mi NW 6.9 mph - N/A   Clear
9:15 PM -10.7 °F -27.2 °F -17.3 °F 72% 30.49 in 10.0 mi NW 8.1 mph - N/A   Clear
9:35 PM -12.6 °F -29.6 °F -18.9 °F 73% 30.50 in 10.0 mi NW 8.1 mph - N/A   Clear
9:55 PM -11.9 °F -27.3 °F -18.2 °F 74% 30.51 in 10.0 mi WNW 6.9 mph - N/A   Clear
10:15 PM -9.6 °F -27.0 °F -15.7 °F 74% 30.51 in 10.0 mi WNW 9.2 mph - N/A   Clear
10:35 PM -9.0 °F -26.4 °F -15.7 °F 73% 30.52 in 10.0 mi WNW 9.2 mph - N/A   Clear
10:55 PM -11.0 °F -27.6 °F -17.9 °F 72% 30.51 in 10.0 mi WNW 8.1 mph - N/A   Clear
11:15 PM -12.8 °F -29.8 °F -18.9 °F 74% 30.51 in 10.0 mi WNW 8.1 mph - N/A   Clear
11:36 PM -12.3 °F -26.1 °F -18.4 °F 74% 30.50 in 10.0 mi WNW 5.8 mph - N/A   Clear
11:55 PM -13.0 °F -30.0 °F -18.8 °F 75% 30.50 in 10.0 mi WNW 8.1 mph - N/A   Clear